(51) Nemausa
(51) Nemausa
Epoch 2008 Nov. 30.0 TT = JDT 2454800.5 Goffin
M 145.87961 (2000.0) P Q
n 0.27084567 Peri. 3.22430 -0.99987252 -0.01077495
a 2.3658550 Node 176.09950 +0.00773061 -0.97239734
e 0.0672298 Incl. 9.97526 +0.01397081 -0.23308222
P 3.64 H 7.35 G 0.08 U 0
From 3595 observations at 87 oppositions, 1858-1997, mean residual 0".52.
An explanation of the orbital
elements is available.These orbital elements are also available in forms suitable for loading into a number of popular planetarium-type software programs.
Personalized ephemerides for this object (and others) can be generated using the MPES.
Date TT R. A. (2000) Decl. Delta r Elong. Phase V 2009 09 18 04 00.79 +11 30.9 1.894 2.483 114.3 21.6 11.9 2009 09 23 04 02.45 +11 06.2 1.836 2.480 118.8 20.8 11.8 2009 09 28 04 03.43 +10 38.7 1.781 2.478 123.4 19.7 11.7 2009 10 03 04 03.70 +10 08.5 1.729 2.475 128.1 18.5 11.5 2009 10 08 04 03.24 +09 35.9 1.680 2.473 133.0 17.2 11.4 2009 10 13 04 02.04 +09 01.3 1.636 2.470 138.1 15.7 11.3 2009 10 18 04 00.10 +08 25.0 1.596 2.467 143.2 14.0 11.2 2009 10 23 03 57.46 +07 47.7 1.561 2.464 148.4 12.2 11.1 2009 10 28 03 54.17 +07 10.0 1.532 2.462 153.5 10.4 11.0 2009 11 02 03 50.32 +06 32.8 1.509 2.459 158.4 8.6 10.8 2009 11 07 03 46.02 +05 56.9 1.492 2.456 162.6 6.9 10.7 2009 11 12 03 41.38 +05 23.1 1.482 2.453 165.4 5.9 10.7 2009 11 17 03 36.56 +04 52.3 1.479 2.450 165.8 5.7 10.6 2009 11 22 03 31.71 +04 25.5 1.483 2.446 163.7 6.5 10.7 2009 11 27 03 26.99 +04 03.1 1.493 2.443 159.9 8.0 10.8 2009 12 02 03 22.57 +03 45.9 1.510 2.440 155.1 9.8 10.9 2009 12 07 03 18.56 +03 34.0 1.533 2.437 150.0 11.7 11.0 2009 12 12 03 15.07 +03 27.6 1.562 2.433 144.7 13.5 11.1 2009 12 17 03 12.19 +03 26.7 1.596 2.430 139.5 15.3 11.2 2009 12 22 03 09.99 +03 31.1 1.636 2.427 134.3 16.9 11.3 2009 12 27 03 08.50 +03 40.4 1.679 2.423 129.2 18.3 11.4